Погода в Старом Вышкове

Россия / Брянская область     52°35′13″N   31°38′45″E
темп.,
°C
ветер,
м/с
пор.,
м/с
влажн.,
%
обл.,
%
осадки,
мм/ч
давл.,
гПа
погр.,
м
4 марта, чт
чт400:00−1зюз49870 0.0 1019243
03:00−1зюз49860 0.0 1017262
06:00−1юз512860 0.0 1013343
09:000юз612880 0.0 1011441
12:00+4зюз59740 0.0 1008646
15:00+6зюз69732 0.0 10051000
18:00+4з41184100 0.1 1005447
21:00+1сз3893100 0.1 1006495
5 марта, пт
пт500:00−1зсз259396 0.0 1006157
03:00−1зсз379893 0.1 1007249
06:00−1с359699 0.1 1008347
09:00−1с357799 0.4 1009586
12:00+1с3469100 0.0 1010885
15:00+1ссз4559100 0.0 10121285
18:00−1с246785 0.0 1013122
21:00−3ссз127388 0.0 101523
6 марта, сб
сб600:00−3зюз237416 0.0 101660
03:00−4сз598235 0.0 1018731
06:00−4сз696898 0.1 10181170
09:00−4сз696198 0.1 10201149
12:00−3сз71052100 0.1 10211588
15:00−2сз6950100 0.1 10221650
18:00−3сз484967 0.0 10221550
21:00−4з375933 0.0 1023269
7 марта, вс
вс700:00−4зюз410560 0.0 1022416
03:00−4юз613575 0.0 1018565
06:00−3юз8156364 0.0 1015808
09:00−2зюз9176382 0.0 10111157
12:000зюз101762100 0.0 10081407
15:00+2з101762100 0.0 10061544
18:00+1з101870100 0.0 10051533
21:00−2зсз61293100 2.0 10071151
8 марта, пн
пн800:00−3зсз61273100 0.4 10081118
03:00−4зсз6126850 0.4 1009991
06:00−5зсз5107352 0.0 1009962
09:00−4зсз687076 0.1 10111104
12:00−3сз5776100 0.3 1012882
15:00−3сз6860100 0.4 10131378
18:00−4ссз5863100 0.1 10141322
21:00−6ссз587888 0.2 1017922